This demonstration page uses our WeatherBlox Daily Observations layout. Learn more.

Left ArrowRight Arrow

39.51506, -84.39828

Hourly Observations for February 16, 2020

Temp ( °F °C ) Dew Point ( °F °C ) Humidity (%) Winds ( mph kmh ) Pressure ( in mb ) Visibility ( mi km ) Precip ( " mm )
12:15 am 00:15 Cloudy 39 3.7 22 -5.4 52 52 SW 6 9 30.2 1023 10 16.0934 0 0
12:35 am 00:35 Cloudy 39 4 22 -5.5 50 50 S 9 15 30.18 1022 10 16.0934 0 0
12:55 am 00:55 Cloudy 39 4.1 22 -5.6 50 50 SSW 9 15 30.17 1022 10 16.0934 0 0
1:15 am 01:15 Cloudy 39 3.9 22 -5.4 51 51 WSW 3 6 30.17 1022 10 16.0934 0 0
1:35 am 01:35 Cloudy 39 4 22 -5.7 50 50 WNW 5 7 30.18 1022 10 16.0934 0 0
1:55 am 01:55 Cloudy 39 3.7 22 -5.3 52 52 Calm 30.19 1022 10 16.0934 0 0
2:15 am 02:15 Cloudy 37 2.9 24 -4.7 58 58 Calm 30.18 1022 10 16.0934 0 0
2:35 am 02:35 Cloudy 36 2.3 24 -4.2 63 63 Calm 30.18 1022 10 16.0934 0 0
2:55 am 02:55 Cloudy 37 2.7 24 -4.5 59 59 Calm 30.17 1022 10 16.0934 0 0
3:15 am 03:15 Cloudy 34 1.2 29 -1.9 80 80 Calm 30.17 1022 10 16.0934 0 0
3:35 am 03:35 Cloudy 35 1.4 27 -2.7 74 74 Calm 30.17 1022 10 16.0934 0 0
3:55 am 03:55 Cloudy 35 1.5 27 -2.6 74 74 Calm 30.17 1022 10 16.0934 0 0
4:15 am 04:15 Cloudy 34 1.3 27 -2.7 75 75 Calm 30.17 1022 10 16.0934 0 0
4:35 am 04:35 Cloudy 34 1 28 -2.1 80 80 Calm 30.16 1021 10 16.0934 0 0
4:55 am 04:55 Cloudy 35 1.6 27 -3 72 72 Calm 30.16 1021 10 16.0934 0 0
5:15 am 05:15 Cloudy 34 1 28 -2.5 78 78 Calm 30.16 1021 10 16.0934 0 0
5:35 am 05:35 Cloudy 34 1.1 28 -2.2 79 79 Calm 30.16 1021 10 16.0934 0 0
5:55 am 05:55 Cloudy 33 0.8 28 -2.2 81 81 W 3 6 30.16 1021 10 16.0934 0 0
6:15 am 06:15 Cloudy 34 1.2 28 -2.5 77 77 Calm 30.16 1021 10 16.0934 0 0
6:35 am 06:35 Cloudy 34 1.2 28 -2.5 77 77 Calm 30.16 1021 10 16.0934 0 0
6:55 am 06:55 Cloudy 33 0.8 29 -1.8 83 83 Calm 30.16 1021 10 16.0934 0 0
7:15 am 07:15 Cloudy 34 1 28 -2.2 79 79 Calm 30.16 1021 10 16.0934 0 0
7:35 am 07:35 Cloudy 35 1.5 28 -2.4 76 76 Calm 30.16 1021 10 16.0934 0 0
7:55 am 07:55 Cloudy 34 0.9 29 -1.4 85 85 Calm 30.16 1021 10 16.0934 0 0
8:15 am 08:15 Cloudy 34 1.3 30 -1.3 83 83 Calm 30.17 1022 10 16.0934 0 0
8:35 am 08:35 Cloudy 34 1.3 30 -1.3 83 83 Calm 30.17 1022 10 16.0934 0 0
8:55 am 08:55 Cloudy 35 1.5 30 -0.9 84 84 Calm 30.17 1022 10 16.0934 0 0
9:15 am 09:15 Cloudy 35 1.9 31 -0.7 83 83 Calm 30.17 1022 10 16.0934 0 0
9:35 am 09:35 Cloudy 37 2.5 29 -1.6 75 75 Calm 30.17 1022 10 16.0934 0 0
9:55 am 09:55 Cloudy 38 3.2 27 -2.6 66 66 Calm 30.17 1022 10 16.0934 0 0
10:15 am 10:15 Cloudy 38 3.6 27 -2.8 63 63 S 3 6 30.16 1021 10 16.0934 0 0
10:35 am 10:35 Cloudy 39 4 26 -3.2 60 60 Calm 30.15 1021 10 16.0934 0 0
10:55 am 10:55 Cloudy 39 3.9 27 -2.9 62 62 Calm 30.15 1021 10 16.0934 0 0
11:15 am 11:15 Cloudy 39 3.9 27 -2.9 62 62 Calm 30.15 1021 10 16.0934 0 0
11:35 am 11:35 Cloudy 40 4.4 27 -3 59 59 S 5 7 30.15 1021 10 16.0934 0 0
11:55 am 11:55 Cloudy 41 4.9 26 -3.4 55 55 Calm 30.15 1021 10 16.0934 0 0
12:15 pm 12:15 Cloudy 42 5.4 26 -3.1 55 55 WNW 6 9 30.15 1021 10 16.0934 0 0
12:35 pm 12:35 Cloudy 42 5.8 26 -3.2 53 53 WNW 5 7 30.14 1021 10 16.0934 0 0
12:55 pm 12:55 Cloudy 43 6.2 26 -3.1 52 52 WNW 3 6 30.14 1021 10 16.0934 0 0
1:15 pm 13:15 Cloudy 44 6.5 26 -3.1 51 51 Calm 30.13 1020 10 16.0934 0 0
1:35 pm 13:35 Cloudy 45 7.1 27 -2.8 50 50 Calm 30.12 1020 10 16.0934 0 0
1:55 pm 13:55 Cloudy 46 7.5 27 -2.6 49 49 NW 5 7 30.12 1020 10 16.0934 0 0
2:15 pm 14:15 Cloudy 46 7.5 28 -2.1 51 51 W 5 7 30.11 1019 10 16.0934 0 0
2:35 pm 14:35 Cloudy 46 7.7 29 -1.9 51 51 W 7 11 30.1 1019 10 16.0934 0 0
2:55 pm 14:55 Cloudy 46 7.8 29 -1.5 52 52 WNW 6 9 30.1 1019 10 16.0934 0 0
3:15 pm 15:15 Cloudy 47 8.2 30 -1.1 52 52 W 6 9 30.09 1019 10 16.0934 0 0
3:35 pm 15:35 Partly Cloudy 47 8.3 30 -1.2 52 52 W 6 9 30.1 1019 10 16.0934 0 0
3:55 pm 15:55 Sunny 47 8.5 30 -1.1 51 51 WNW 3 6 30.1 1019 10 16.0934 0 0
4:15 pm 16:15 Sunny 48 9 30 -1 50 50 WNW 9 15 30.11 1020 10 16.0934 0 0
4:35 pm 16:35 Sunny 47 8.4 28 -2 48 48 NNW 8 13 30.11 1020 10 16.0934 0 0
4:55 pm 16:55 Sunny 47 8.2 28 -2.3 48 48 NW 6 9 30.11 1020 10 16.0934 0 0
5:15 pm 17:15 Sunny 46 7.7 28 -2.1 50 50 NNW 5 7 30.12 1020 10 16.0934 0 0
5:35 pm 17:35 Sunny 45 7.2 29 -1.5 54 54 NNW 8 13 30.14 1021 10 16.0934 0 0
5:55 pm 17:55 Sunny 43 6.2 29 -1.9 56 56 N 3 6 30.14 1021 10 16.0934 0 0
6:15 pm 18:15 Clear 41 5.2 28 -2.1 60 60 N 5 7 30.15 1021 10 16.0934 0 0
6:35 pm 18:35 Clear 40 4.6 29 -1.9 63 63 N 3 6 30.15 1021 10 16.0934 0 0
6:55 pm 18:55 Clear 39 3.8 28 -2.2 65 65 Calm 30.17 1022 10 16.0934 0 0
7:15 pm 19:15 Clear 37 2.8 29 -1.9 72 72 Calm 30.17 1022 10 16.0934 0 0
7:35 pm 19:35 Clear 35 1.4 28 -2.1 78 78 Calm 30.18 1022 10 16.0934 0 0
7:55 pm 19:55 Clear 35 1.4 28 -2.2 77 77 Calm 30.18 1022 10 16.0934 0 0
8:15 pm 20:15 Clear 34 1 29 -1.9 81 81 NNE 3 6 30.18 1022 10 16.0934 0 0
8:35 pm 20:35 Clear 31 -0.3 27 -2.6 85 85 N 3 6 30.18 1022 10 16.0934 0 0
8:55 pm 20:55 Clear 29 -1.4 26 -3.1 88 88 N 6 9 30.18 1022 10 16.0934 0 0
9:15 pm 21:15 Clear 28 -2 26 -3.3 91 91 Calm 30.19 1022 10 16.0934 0 0
9:35 pm 21:35 Clear 29 -1.9 27 -2.9 93 93 N 3 6 30.2 1023 10 16.0934 0 0
9:55 pm 21:55 Clear 28 -2.2 26 -3.3 92 92 N 3 6 30.2 1023 10 16.0934 0 0
10:15 pm 22:15 Clear 29 -1.5 28 -2.4 94 94 Calm 30.21 1023 10 16.0934 0 0
10:35 pm 22:35 Clear 27 -2.7 26 -3.3 96 96 N 3 6 30.22 1023 10 16.0934 0 0
10:55 pm 22:55 Clear 26 -3.3 24 -4.2 94 94 Calm 30.21 1023 10 16.0934 0 0
11:15 pm 23:15 Clear 25 -3.7 24 -4.5 94 94 N 5 7 30.21 1023 10 16.0934 0 0
11:35 pm 23:35 Clear 26 -3.5 25 -4 96 96 Calm 30.2 1023 10 16.0934 0 0
11:55 pm 23:55 Clear with Mist and Fog 23 -4.9 22 -5.7 94 94 N 5 7 30.2 1023 7 11.26538 0 0

Powered by AerisWeather